{"data":{"norad_id":53734,"intl_designator":"2022-107AL","name":"STARLINK-4616","alt_names":[],"object_type":"PAYLOAD","status":"ACTIVE","operator":null,"country":"US","launch_date":"2022-09-05","launch_site_code":"AFETR","launch_vehicle":null,"mission":null,"orbit_class":"UNKNOWN","rcs_meters":null,"size_class":null,"mass_kg":null,"dimensions":null,"purposes":["comms"],"wikipedia_slug":null,"has_3d_model":false,"image_url":null,"decayed_at":null,"tle_current":{"epoch":"2026-09-20T05:15:19.072800Z","epoch_age_seconds":105806,"freshness":"FRESH","line1":"1 53734U 22107AL  26263.21897075  .00000075  00000+0  13348-4 0  9996","line2":"2 53734  53.1610  87.3678 0001103  93.1725 266.9404 15.34388562224139","mean_motion":15.34388562,"eccentricity":0.0001103,"inclination_deg":53.161,"raan_deg":87.3678,"arg_perigee_deg":93.1725,"mean_anomaly_deg":266.9404,"bstar":1.3348e-5,"rev_number":22413,"period_min":93.848457663359,"perigee_km":461.98268813645,"apogee_km":463.49178499303,"semimajor_km":6840.8742365647,"source":"CELESTRAK","updated_at":"2026-09-21T09:00:32.988449Z"}}}